Flag for U.S.A. Weather past 2 weeks in Bryan – College Station, Texas, U.S.A.

Now
38 °F

Overcast.


Feels Like: 29 °F
Forecast: 32 / 44 °F
Wind: 16 mph from Northeast

Location: Easterwood Field

Current Time: Mar 5, 2015 at 1:31:33 PM

Latest Report: Mar 5, 2015 at 12:53 PM


Visibility: 10 mi

Pressure: 30.52 "Hg

Humidity: 70%

Dew point: 29 °F

Location of Bryan – College StationLocation

Historic Weather in Bryan – College Station — Graph

°F

Bryan – College Station temperature yesterday

Maximum temperature yesterday: 76 °F (at 11:53 AM)
Minimum temperature yesterday: 35 °F (at 10:53 PM)
Average temperature yesterday: 59 °F

Past Weeks' High & Low Weather Summary

 TemperatureHumidityPressure
High76 °F (Mar 3, 2:53 PM)100% (Feb 25, 6:01 AM)30.53 "Hg (Feb 25, 6:01 AM)
Low30 °F (Feb 24, 3:53 AM)31% (Feb 18, 3:53 PM)29.78 "Hg (Mar 4, 2:53 PM)
Average47 °F81%30.14 "Hg
* Reported Feb 18 11:53 AM — Mar 5 11:53 AM, Bryan – College Station, Weather by CustomWeather, © 2015

Note: Actual official high and low records may vary slightly from our data, if they occured in-between our weather recording intervals... More about our weather records

Advertising

Bryan – College Station weather history for previous 24 hours

 ConditionsComfort  
Time TempWeatherWind HumidityBarometerVisibility
11:53 AM
Thu, Mar 5
37 °FOvercast.15 mph70%30.53 "Hg10 mi
10:53 AM34 °FOvercast.18 mph79%30.52 "Hg10 mi
9:53 AM32 °FOvercast.21 mph82%30.52 "Hg10 mi
8:53 AM32 °FOvercast.21 mph82%30.48 "Hg10 mi
7:53 AM31 °FOvercast.21 mph89%30.42 "Hg10 mi
6:53 AM32 °FLight snow. Overcast.22 mph85%30.40 "Hg10 mi
5:53 AM33 °FLight rain. Overcast.21 mph85%30.35 "Hg10 mi
4:53 AM34 °FOvercast.21 mph88%30.31 "Hg10 mi
3:53 AM34 °FOvercast.21 mph92%30.26 "Hg10 mi
2:53 AM34 °FLight rain. Mostly cloudy.18 mph92%30.21 "Hg10 mi
1:53 AM34 °FMostly cloudy.21 mph88%30.17 "Hg10 mi
12:53 AM35 °FLight rain. Fog.23 mph88%30.18 "Hg6 mi
12:00 AM35 °FLight snow. Low clouds.23 mph88%30.16 "Hg8 mi
10:53 PM
Wed, Mar 4
35 °FLight rain. Fog.23 mph92%30.15 "Hg6 mi
9:53 PM37 °FLight snow. Fog.22 mph89%30.10 "Hg6 mi
8:53 PM38 °FOvercast.29 mph86%30.05 "Hg10 mi
8:03 PM39 °FLow clouds.25 mph93%30.01 "Hg7 mi
7:53 PM40 °FOvercast.22 mph89%29.99 "Hg9 mi
7:04 PM42 °FLight rain. Mostly cloudy.16 mph92%29.96 "Hg9 mi
6:53 PM43 °FRain. Mostly cloudy.20 mph89%29.96 "Hg7 mi
5:53 PM47 °FLow clouds.18 mph90%29.89 "Hg10 mi
5:03 PM50 °FLight rain. Cloudy.22 mph89%29.87 "Hg10 mi
4:53 PM51 °FLight rain. Mostly cloudy.22 mph89%29.85 "Hg10 mi
4:03 PM60 °FMostly cloudy.15 mph86%29.82 "Hg10 mi
2:53 PM75 °FMostly cloudy.9 mph71%29.78 "Hg10 mi
1:53 PM76 °FCloudy.13 mph67%29.80 "Hg10 mi
Weather by CustomWeather, © 2015

See weather overviewHow to use our weather pages